Regional Weather Roundup
Issued by NWS

Home | Current Version | Previous Version | Graphics & Text | Print | Product List | Glossary Off
Versions: 1 2 3 4 5 6 7 8 9 10 11 12 13 14 15 16 17 18 19 20 21 22 23 24 25 26 27 28 29 30 31 32 33 34 35 36 37 38 39 40 41 42 43 44 45 46 47 48 49 50

496
ASUS43 KMPX 251610
RWRMN
WEATHER ROUNDUP FOR MINNESOTA
NATIONAL WEATHER SERVICE TWIN CITIES/CHANHASSEN MN
1100 AM CDT TUE APR 25 2017


NOTE: "FAIR" INDICATES FEW OR NO CLOUDS BELOW 12,000 FEET WITH NO
SIGNIFICANT WEATHER AND/OR OBSTRUCTIONS TO VISIBILITY. N/A MEANS
CURRENT SKY AND/OR WEATHER CONDITIONS ARE NOT AVAILABLE.

MNZ060>063-068>070-251700-
   Twin Cities Metro

CITY           SKY/WX    TMP DP  RH WIND       PRES   REMARKS
TWIN CITIES    CLOUDY    57  46  66 SW6       29.55R
ST PAUL        CLOUDY    61  48  62 SW8       29.54S
CRYSTAL        MOSUNNY   57  46  66 VRB5      29.53R
BLAINE         PTSUNNY   63  46  55 S5        29.53R
LAKEVILLE      MOSUNNY   54  46  76 W3        29.54S
EDEN PRAIRIE   CLOUDY    52  46  80 SW7       29.54R
SOUTH ST PAUL  MOSUNNY   63  43  48 S10       29.53R
LAKE ELMO      FAIR      64  43  45 S10       29.54S
$$
MNZ001>005-007-008-013>017-022>024-027-028-251700-
   Northwest Minnesota

CITY           SKY/WX    TMP DP  RH WIND       PRES   REMARKS
BEMIDJI        CLOUDY    33  33  99 N15G21    29.71R WCI  23
HALLOCK        CLOUDY    32  27  80 N21       29.85R WCI  20
ROSEAU         CLOUDY    30  27  86 N21       29.82S WCI  17
WARROAD        CLOUDY    30  27  86 NE21      29.82F WCI  17
THIEF RVR FALL CLOUDY    31  28  89 N18G26    29.78S WCI  19
CROOKSTON      CLOUDY    34  28  80 N22G29    29.79F WCI  22
FOSSTON        CLOUDY    34  34 100 N15G23    29.73R WCI  24
DETROIT LAKES  CLOUDY    36  36 100 N12G17    29.68S
MOORHEAD       CLOUDY    36  30  80 N25G31    29.72F
PARK RAPIDS    CLOUDY    40  33  76 N15G22    29.65R
MAHNOMEN       CLOUDY    34  32  92 N22       29.71R WCI  22
$$
MNZ006-009>011-018-025>026-251700-
   North Central Minnesota

CITY           SKY/WX    TMP DP  RH WIND       PRES   REMARKS
BAUDETTE       CLOUDY    31  27  85 NE14G20   29.78R WCI  21
FLAG ISLAND    CLOUDY    28  25  86 NE21      29.84R WCI  15
INTL FALLS     CLOUDY    32  28  85 N13       29.74R WCI  22
WASKISH        CLOUDY    32  32 100 N13       29.74R WCI  22
BIG FORK       CLOUDY    37  36  93 N7        29.68F
LONGVILLE      CLOUDY    39  37  93 N10G16    29.64R
GRAND RAPIDS   CLOUDY    42  37  82 N13       29.66R
CRANE LAKE     CLOUDY    37  36  93 N6        29.72R
ORR            CLOUDY    37  34  87 CALM      29.66S
COOK           CLOUDY    41  37  87 N8        29.66F
WALKER         CLOUDY    36  34  92 N12G17    29.67R
$$
MNZ012-019>021-037-251700-
   Northeast Minnesota

CITY           SKY/WX    TMP DP  RH WIND       PRES   REMARKS
DULUTH         CLOUDY    53  41  63 E12       29.59R
ELY            CLOUDY    43  39  87 N6        29.64R
HIBBING        PTSUNNY   45  41  86 NE14      29.63R
EVELETH        MOSUNNY   44  38  79 N6        29.64R
DULUTH HARBOR  CLOUDY    43  39  87 E10       29.62R
TWO HARBORS    CLOUDY    54  45  71 NE12      29.58R
SILVER BAY     PTSUNNY   50  41  71 E7        29.60R
GRAND MARAIS     N/A     42  39  89 N6        29.63S
G MARAIS ARPRT CLOUDY    45  37  76 N5        29.62F
$$
MNZ029>031-032-039>041-046>048-054>057-064-251700-
   West Central Minnesota

CITY           SKY/WX    TMP DP  RH WIND       PRES   REMARKS
FERGUS FALLS   CLOUDY    37  37 100 NE13G18   29.66S
WHEATON        CLOUDY    36  34  93 NW18G25   29.70R
MORRIS         CLOUDY    41  37  87 N16G22    29.62S
ALEXANDRIA     CLOUDY    43  40  89 N14       29.62R
ELBOW LAKE     CLOUDY    39  38  93 N15       29.65R
WADENA         CLOUDY    39  36  87 N16       29.63R
GLENWOOD       CLOUDY    45  41  87 N16       29.61R
APPLETON       CLOUDY    39  36  87 NW15G23   29.64S FOG
BENSON         CLOUDY    45  39  81 N9        29.63R HAZE
ORTONVILLE     CLOUDY    36  34  93 N14G22    29.67R
MADISON        CLOUDY    39  39 100 N18G25    29.65S
WILLMAR        CLOUDY    48  45  87 N10       29.60S
$$
MNZ033>034-036-042>043-049>051-058-059-251700-
   Central Minnesota

CITY           SKY/WX    TMP DP  RH WIND       PRES   REMARKS
ST CLOUD       CLOUDY    53  44  71 N10       29.56R
SAUK CENTRE    CLOUDY    46  40  81 N12       29.60R
PAYNESVILLE    CLOUDY    51  42  70 N8        29.58S
AITKIN         CLOUDY    50  37  62 N10       29.59R
PINE RIVER     CLOUDY    41  37  87 N14       29.67R
BRAINERD       MOSUNNY   49  40  71 N12       29.61R
STAPLES        CLOUDY    43  37  81 N14       29.62R
LONG PRAIRIE   CLOUDY    45  39  81 N12G17    29.61R
LITTLE FALLS   MOSUNNY   50  39  66 NE7       29.59R
LITCHFIELD     CLOUDY    54  46  76 NW9       29.57R
BUFFALO        CLOUDY    56  47  71 W5        29.55S
MAPLE LAKE     CLOUDY    57  47  69 NW7       29.56R
HUTCHINSON     CLOUDY    50  47  90 W9        29.57S
$$
MNZ037-044-045-052-053-251700-
   East Central Minnesota

CITY           SKY/WX    TMP DP  RH WIND       PRES   REMARKS
PRINCETON      MOSUNNY   59  45  58 NW7       29.55R
MORA           PTSUNNY   55  41  58 N8        29.58R
CAMBRIDGE      PTSUNNY   61  46  59 NW3       29.52R
RUSH CITY      PTSUNNY   59  45  58 N5        29.54R
MOOSE LAKE     MOSUNNY   52  41  66 NE7       29.57R
HINCKLEY       PTSUNNY   59  43  55 N6        29.56R
CLOQUET        MOSUNNY   50  39  66 NE5       29.59R
MCGREGOR       CLOUDY    48  41  76 N12       29.61R
$$
MNZ071>073-080-081-089-090-097-098-251700-
   Southwest Minnesota

CITY           SKY/WX    TMP DP  RH WIND       PRES   REMARKS
MONTEVIDEO     CLOUDY    37  37 100 N15       29.62F FOG
GRANITE FALLS  CLOUDY    40  38  93 NW16      29.64S FOG
CANBY          CLOUDY    37  36  97 NW17      29.65F FOG
MARSHALL       CLOUDY    37  35  92 NW20      29.62F
REDWOOD FALLS  CLOUDY    41  38  89 NW10      29.60R
OLIVIA         CLOUDY    41  37  87 NW13      29.59R
PIPESTONE      CLOUDY    39  34  81 N10       29.59F
WINDOM         CLOUDY    39  37  93 NW15      29.61S
WORTHINGTON    CLOUDY    39  37  92 N12       29.61R
JACKSON        CLOUDY    39  37  93 NW14      29.60S
TRACY          CLOUDY    38  37  94 NW13G18   29.62S
SLAYTON        CLOUDY    36  36  97 NW16      29.61S FOG
$$
MNZ065>067-074>077-082>085-091>093-251700-
   South Central Minnesota

CITY           SKY/WX    TMP DP  RH WIND       PRES   REMARKS
MANKATO        CLOUDY    44  41  89 W9        29.58R
NEW ULM        CLOUDY    43  39  87 W10       29.59S
ST JAMES       CLOUDY    41  39  93 NW14      29.60S
FAIRMONT       CLOUDY    43  39  87 NW15      29.59R
GLENCOE        CLOUDY    50  49  94 W7        29.56R
FARIBAULT      CLOUDY    52  45  76 SW6       29.55S
OWATONNA       CLOUDY    52  43  71 NW3       29.55R
WASECA         CLOUDY    45  41  87 W9        29.57R
ALBERT LEA     CLOUDY    54  43  66 N6        29.53S
$$
MNZ078>079-086>088-094>096-251700-
   Southeast Minnesota

CITY           SKY/WX    TMP DP  RH WIND       PRES   REMARKS
ROCHESTER      CLOUDY    64  41  42 S12       29.54F
RED WING       CLOUDY    66  36  32 SE6       29.52F
STANTON        PTSUNNY   57  45  64 CALM      29.53S
DODGE CENTER   CLOUDY    63  41  45 S6        29.54R
WINONA         MOSUNNY   70  41  35 SE5       29.54F
AUSTIN         CLOUDY    61  43  51 CALM      29.52F
PRESTON        CLOUDY    63  42  46 S10       29.55S
$$
ABBREVIATIONS USED IN REMARKS
   TC - TEMPERATURES IN CELSIUS
  WCI - WIND CHILL INDEX
   HX - HEAT INDEX
  VSB - VISIBILITY
$$




USA.gov is the U.S. government's official web portal to all federal, state and local government web resources and services.